Theta_e
285 284 284 283 283 283 282 282 282 282 282 282 282 282 281 281 281 281 281 281 281 281 281 280 280 279 278 277 277 277 277 276 276 276 275 275 275 274 274 274 273 273 274 276 276 276 276 276 276 276 276 276 276 276 276 276 276 276 276 277 277 277 277
284 283 283 283 282 282 282 282 282 281 281 281 281 281 280 280 280 280 280 281 281 281 280 280 279 279 278 277 277 277 276 276 275 275 275 275 274 274 274 273 273 272 273 274 276 276 276 276 276 276 276 276 276 276 276 276 276 276 276 276 277 277 277
284 283 282 282 282 282 282 281 281 281 280 280 280 280 280 280 280 280 280 280 281 280 279 279 279 278 278 277 276 276 276 275 275 275 274 274 274 273 273 273 273 272 272 273 274 275 275 275 275 276 276 276 276 276 276 276 276 276 276 276 276 276 276
284 283 282 282 281 281 281 281 281 280 280 279 279 280 280 280 279 279 280 280 280 279 279 279 279 278 277 276 276 276 275 275 275 275 274 274 273 273 273 273 272 272 272 272 272 274 274 275 275 276 276 276 276 276 276 276 275 275 276 276 276 276 275
284 283 282 282 281 281 281 281 281 280 279 279 279 280 280 279 279 279 279 279 279 279 278 278 278 278 276 276 276 276 275 275 275 274 274 273 273 273 273 272 272 272 272 271 272 272 273 274 274 275 275 275 275 276 276 275 275 275 276 276 276 276 275
283 283 282 282 281 281 280 280 280 280 279 279 279 279 279 279 278 279 279 279 279 278 278 278 278 277 276 276 276 276 275 275 274 274 273 273 273 272 272 272 272 272 271 271 271 272 272 273 274 275 275 275 275 275 275 275 275 275 275 276 276 276 276
283 283 282 281 281 280 280 280 280 279 279 279 279 278 278 278 278 278 278 278 278 278 279 279 278 277 277 276 276 275 275 274 274 273 273 273 273 272 272 272 272 271 271 271 271 271 272 273 273 274 274 274 274 274 274 274 274 274 275 275 276 276 276
283 282 282 281 280 280 279 279 279 279 278 278 278 278 278 278 278 278 278 278 278 278 278 278 278 277 277 276 275 275 274 274 273 273 273 273 272 272 272 272 272 271 271 271 271 271 272 272 273 273 274 274 274 274 274 273 273 274 274 274 275 275 275
282 281 281 280 280 279 279 279 279 278 278 277 277 277 277 278 278 277 277 277 278 278 278 278 278 277 277 276 275 274 274 273 273 273 273 273 272 272 271 271 272 271 271 271 271 271 271 272 272 273 273 273 273 273 273 272 273 273 273 273 274 275 275
282 281 280 280 279 279 278 278 278 278 277 277 277 277 277 277 277 277 277 277 277 278 278 278 278 277 276 275 274 274 274 273 273 273 273 272 272 272 272 271 271 271 271 271 271 271 271 271 272 273 272 272 272 272 272 272 272 272 272 272 272 273 274
281 281 280 280 279 279 278 278 278 277 277 276 276 276 276 276 276 276 276 277 277 277 278 278 277 276 276 275 275 274 274 273 273 273 272 272 272 272 272 271 271 271 271 271 271 271 271 271 272 272 272 272 272 272 272 272 271 270 270 270 270 271 272
281 281 280 279 279 278 278 278 277 277 276 275 275 276 276 275 275 276 276 276 276 277 277 277 277 276 276 275 275 274 273 273 273 272 272 272 272 271 272 272 271 271 271 271 271 270 271 271 272 272 272 272 272 271 271 271 270 269 268 268 268 269 269
281 280 280 279 279 278 278 277 277 276 275 275 275 275 275 275 275 275 275 276 276 277 277 277 276 276 276 276 275 274 273 273 273 272 272 272 271 271 272 272 272 271 271 271 270 270 271 272 272 271 271 271 271 271 271 270 269 268 267 267 267 267 268
281 280 280 279 279 278 278 277 277 276 275 275 274 274 274 275 275 274 275 275 276 276 276 276 276 276 276 275 275 274 273 273 272 272 271 271 272 272 272 272 272 272 271 271 270 270 271 272 271 271 271 271 271 271 270 270 269 267 266 266 266 266 267
280 280 280 279 279 278 277 277 276 276 275 274 274 273 273 274 274 274 275 275 276 276 276 276 276 275 275 275 275 274 274 273 272 271 271 272 272 272 272 272 272 272 271 271 271 271 271 271 271 271 271 271 270 270 270 269 267 266 266 265 265 266 267
280 280 279 279 278 278 277 276 276 275 274 274 273 273 272 272 273 275 275 275 275 275 275 275 275 275 274 274 274 274 273 272 272 271 272 272 272 272 272 272 272 272 271 271 271 271 271 271 271 271 271 270 270 269 269 267 266 266 266 265 265 266 266
280 280 279 278 278 277 277 276 275 275 274 273 273 273 273 272 272 273 275 276 276 275 275 275 274 274 274 274 274 273 273 272 271 271 271 272 272 271 271 272 272 272 271 271 270 270 270 270 270 270 270 269 268 267 266 265 265 265 265 264 264 265 265
280 279 279 278 278 277 276 276 275 274 274 273 273 273 273 272 272 272 273 274 275 275 275 275 274 274 274 274 273 273 272 271 271 271 271 271 271 270 271 271 271 271 271 271 270 269 269 269 269 270 269 269 268 267 266 265 266 265 264 264 264 264 263
279 278 278 278 278 277 276 275 274 274 273 273 273 273 272 272 271 271 272 273 274 274 274 274 274 274 273 273 273 272 271 271 270 270 270 270 270 270 271 271 270 270 270 270 270 270 270 270 270 270 270 270 269 269 268 266 266 265 265 264 264 263 263
278 278 277 277 277 276 275 274 273 273 273 272 273 273 272 271 271 271 272 273 273 273 273 274 273 273 273 273 272 271 271 270 270 270 270 269 269 270 271 270 270 270 270 270 270 270 271 271 272 272 271 271 270 270 269 268 267 266 265 264 264 263 263
277 277 277 276 276 275 275 274 273 273 273 273 273 273 272 271 271 272 272 272 272 272 273 273 273 273 273 272 271 271 270 270 270 270 269 269 270 270 270 269 269 269 270 270 270 270 271 272 272 272 272 272 271 271 271 270 269 267 266 265 264 264 263
276 276 276 275 275 275 274 273 273 272 272 273 273 273 272 271 271 272 272 272 272 272 273 273 273 273 272 272 271 270 270 270 270 270 269 270 270 270 270 269 269 269 269 269 269 270 271 271 272 272 271 271 271 271 271 270 270 269 268 267 266 265 264
275 275 275 274 275 275 274 273 272 272 272 273 273 273 272 271 271 271 272 271 271 272 272 272 272 272 272 271 270 270 270 270 270 270 270 270 270 269 269 269 269 268 268 268 268 269 270 270 270 270 270 270 270 270 270 270 270 269 269 268 268 267 266
274 274 274 274 274 274 274 273 272 272 272 273 273 273 272 271 271 271 271 271 271 271 272 272 271 271 271 270 270 270 270 270 270 270 270 270 269 269 269 268 268 268 268 268 268 268 269 269 269 269 269 269 269 269 269 269 269 269 269 268 268 267 267
274 274 274 274 274 274 273 272 272 272 272 273 273 273 272 272 271 270 270 270 270 271 271 271 270 270 270 269 270 270 270 270 270 270 270 270 269 269 268 268 268 268 268 268 268 268 269 269 269 269 268 268 268 268 268 268 268 268 268 268 268 268 268
273 273 273 273 273 273 273 272 272 272 272 273 272 272 272 272 271 270 270 270 270 270 270 270 270 269 269 269 269 269 269 270 270 270 270 270 269 269 269 269 269 268 268 268 268 268 268 268 268 268 268 267 267 268 268 268 267 267 267 268 268 268 268
272 272 272 273 273 273 272 272 271 272 272 272 272 272 272 272 271 270 270 270 270 270 270 269 269 268 268 268 269 269 269 269 269 270 270 270 269 269 269 269 268 268 268 268 268 268 268 267 267 267 267 267 267 267 267 267 267 267 267 267 267 267 268
272 272 273 273 273 273 272 271 271 272 272 272 272 272 271 271 270 270 270 270 270 269 268 268 268 268 268 268 268 269 269 269 269 269 269 269 269 269 269 268 268 268 268 268 268 267 267 267 266 266 266 266 266 266 267 267 267 267 266 266 266 266 267
271 271 272 272 272 272 271 271 271 272 272 271 271 271 270 270 270 270 269 269 268 268 267 267 267 268 268 268 268 268 268 269 269 269 269 269 269 269 268 268 268 268 268 268 267 267 267 267 266 266 265 265 266 266 266 266 266 266 266 266 266 266 266
269 269 270 270 270 271 270 270 270 271 270 270 270 270 270 270 269 269 269 268 268 267 267 267 267 268 268 268 268 268 268 269 269 269 269 269 269 268 268 268 268 268 268 268 267 267 267 266 266 265 265 265 265 265 265 266 266 266 266 265 265 265 265
267 268 268 268 268 269 269 269 269 270 270 270 270 270 270 269 269 269 268 268 267 267 267 267 267 267 268 268 268 268 268 268 268 268 268 268 268 268 268 268 268 268 268 267 267 267 267 266 266 266 265 265 265 265 265 265 265 265 265 265 265 265 265
267 267 268 267 267 268 268 269 269 269 269 269 269 269 269 269 269 268 268 267 267 267 267 267 267 267 267 268 268 268 268 268 268 268 268 268 268 268 268 268 268 268 268 267 267 267 267 266 266 266 265 265 264 264 264 264 264 264 265 265 265 264 264
267 267 267 267 268 268 269 269 269 269 269 269 269 269 268 268 268 268 267 267 267 267 267 267 267 267 267 268 268 268 268 267 268 268 268 268 268 268 268 268 268 268 268 267 267 266 266 266 266 266 265 264 264 264 264 263 263 264 264 264 264 264 263
267 267 267 267 268 268 268 269 269 269 269 268 268 268 268 267 267 267 267 266 266 266 267 266 267 267 267 267 267 267 267 267 267 267 268 268 268 268 268 268 267 267 267 267 267 266 266 266 266 265 264 264 263 263 263 263 263 263 263 263 263 263 262
267 267 267 267 268 268 268 268 268 268 268 268 267 267 267 266 266 266 266 266 266 266 266 267 267 267 267 267 267 267 266 267 267 267 267 267 267 267 267 267 267 267 267 267 266 266 266 266 265 265 264 264 263 262 262 263 263 263 263 263 263 262 261
267 267 267 267 268 268 267 267 267 267 267 267 267 267 266 266 266 266 266 266 266 266 266 266 266 266 266 266 266 266 266 267 267 267 267 267 267 267 267 267 267 267 266 266 266 265 265 265 265 265 264 263 262 262 262 262 263 263 263 262 262 261 260
Wind_Speed
40 40 40 41 41 41 40 40 40 40 40 40 39 38 37 35 34 33 32 31 31 29 29 28 27 27 26 25 25 25 25 24 23 23 23 23 23 23 23 23 24 27 30 26 22 22 22 23 26 25 25 28 28 26 27 29 30 30 29 29 29 29 28
40 40 39 40 40 41 41 41 41 41 41 41 40 38 37 36 34 34 33 32 31 30 29 29 28 27 27 26 26 26 26 25 24 24 24 24 24 24 24 25 25 27 31 29 25 23 23 23 25 25 25 28 29 27 28 30 31 31 30 30 30 30 30
39 39 39 40 40 41 41 41 41 41 42 41 40 38 37 36 35 34 34 33 32 30 30 29 28 28 28 27 27 27 27 26 26 25 25 25 25 26 26 26 26 27 30 32 29 26 24 24 24 25 26 28 29 29 29 30 31 32 31 30 32 32 31
39 39 40 40 41 41 41 41 41 42 42 41 39 38 38 37 36 35 34 33 32 31 30 30 29 29 29 28 28 28 28 27 26 26 26 27 27 27 27 27 28 28 30 33 33 29 26 25 26 26 26 28 30 30 31 32 32 32 31 31 32 33 33
41 40 41 42 42 42 41 41 41 41 41 40 40 39 39 38 37 35 34 33 32 32 31 30 30 29 30 30 30 30 29 28 27 26 27 28 28 28 28 27 28 30 31 33 35 33 29 27 28 27 26 28 31 31 31 32 33 33 33 32 32 33 33
42 42 42 42 42 42 40 40 40 41 41 41 40 40 39 38 37 36 35 34 33 32 31 30 30 30 31 32 31 30 29 28 27 28 28 29 29 29 29 29 29 30 32 33 34 34 32 30 29 29 28 28 31 32 32 33 34 35 35 34 35 34 33
43 43 43 42 41 41 40 39 40 41 41 41 41 40 39 38 37 37 36 35 33 32 31 31 31 32 32 32 32 31 30 29 29 29 29 29 30 30 30 30 30 30 32 34 34 34 34 32 30 30 29 29 30 32 33 34 35 36 36 36 37 37 34
43 43 43 42 41 41 40 39 40 41 42 42 41 40 39 38 38 37 36 35 33 32 32 32 32 33 33 33 32 31 30 30 30 30 30 30 31 31 30 30 31 31 32 34 34 34 34 34 33 31 31 30 30 32 33 34 36 38 37 36 38 38 36
44 44 44 43 42 41 41 41 41 42 42 41 41 39 39 39 38 37 36 34 33 32 32 32 32 33 33 33 32 31 31 31 31 31 31 31 31 31 31 31 31 32 32 33 35 35 35 35 35 33 32 32 31 31 34 35 36 38 38 38 40 40 37
45 45 45 44 43 42 42 41 41 41 40 40 39 39 38 38 38 37 36 34 33 33 32 32 32 33 33 33 33 33 33 32 32 32 31 32 32 31 32 32 32 32 32 33 35 35 35 35 35 34 32 32 31 32 34 35 36 37 38 39 42 41 39
47 46 45 44 44 43 42 41 40 39 39 39 39 39 38 38 38 37 36 34 33 33 32 32 32 33 33 34 34 33 33 32 32 32 32 32 32 32 32 32 32 32 32 33 35 35 35 35 35 34 33 32 31 32 34 35 35 37 38 40 41 42 41
48 47 46 45 44 43 43 41 39 38 38 39 39 39 38 38 38 37 35 35 33 32 32 32 32 33 34 34 34 33 33 32 33 33 33 33 32 32 33 33 32 32 32 33 34 35 35 35 35 35 33 31 31 32 34 35 35 37 39 40 41 42 40
48 47 46 45 45 44 43 41 38 37 38 38 38 38 39 38 38 37 36 34 33 32 32 32 32 34 34 34 34 33 33 33 34 33 33 33 33 34 34 33 32 31 31 33 35 36 36 34 34 34 33 31 31 33 34 36 38 39 39 39 40 40 38
48 47 46 45 44 44 43 41 38 37 38 39 38 38 39 39 37 36 35 34 33 32 32 32 33 34 34 34 33 34 33 34 34 33 34 34 34 35 34 33 32 32 32 34 35 36 36 33 32 33 32 31 33 34 35 37 39 38 37 37 38 38 38
47 46 46 45 44 44 43 40 37 37 38 39 38 37 38 38 38 36 35 34 33 32 32 32 33 34 34 34 34 34 34 34 33 33 34 35 35 35 35 34 33 32 33 34 34 35 35 33 32 32 32 32 34 35 35 36 37 36 35 36 38 39 40
46 46 45 44 44 44 43 40 37 38 39 39 38 36 36 38 38 37 36 35 33 32 32 32 33 33 33 34 35 35 35 34 33 34 34 35 35 35 35 35 34 33 34 34 33 34 34 33 32 32 32 33 33 34 34 35 35 36 37 38 40 41 41
45 45 44 44 44 43 42 40 38 38 38 38 37 36 37 38 38 38 36 34 32 32 32 32 32 32 33 35 35 35 34 33 33 34 34 34 34 35 36 36 35 34 34 33 32 33 34 33 33 33 33 32 30 30 31 33 37 39 38 39 40 42 40
44 44 44 44 43 42 41 39 38 38 38 37 36 36 37 38 38 38 36 33 31 32 32 32 31 31 33 34 34 33 32 32 33 34 34 34 35 36 37 37 36 35 34 33 32 33 33 33 33 34 34 33 32 32 33 36 40 42 40 41 42 42 42
43 44 44 44 43 41 40 38 38 37 37 36 36 36 37 38 38 38 36 32 31 32 32 32 31 31 33 34 33 32 31 31 33 34 35 34 35 38 39 37 35 35 35 34 34 33 33 33 34 34 35 34 33 33 34 37 41 43 44 46 46 45 44
44 44 44 43 41 40 39 38 38 38 37 36 36 36 37 38 38 37 34 32 32 33 32 31 31 32 33 33 32 31 30 31 32 34 35 35 37 39 38 36 35 35 35 35 35 34 34 34 34 35 37 36 34 32 32 33 36 38 41 44 47 47 47
43 43 43 42 41 40 39 38 38 38 37 37 37 36 37 38 38 36 33 33 34 34 32 31 31 32 32 31 30 31 31 31 32 33 35 37 39 39 37 35 36 36 36 36 36 35 34 34 35 37 39 38 36 34 32 31 31 32 34 37 40 42 44
42 43 43 42 41 40 38 37 38 39 37 36 36 36 36 37 37 34 32 34 34 33 32 31 31 31 30 29 29 31 31 32 32 33 36 38 38 37 36 35 36 36 36 37 36 36 36 36 37 39 39 39 37 35 33 32 31 31 32 33 36 38 40
42 42 43 43 41 39 37 37 38 38 37 36 36 35 34 35 35 33 33 34 34 32 32 32 31 30 30 29 30 31 32 32 33 34 36 37 36 35 35 35 36 36 36 37 37 37 38 38 39 40 40 38 37 36 34 33 33 32 32 33 34 36 38
42 42 42 42 41 39 37 37 38 38 36 36 35 34 33 33 34 33 32 33 33 33 32 31 31 30 30 29 30 31 32 33 34 34 35 35 34 34 34 35 36 36 37 37 38 39 40 40 40 40 39 36 36 36 35 34 34 34 33 33 34 35 36
41 41 41 41 41 38 36 36 37 37 36 35 34 33 32 32 33 32 32 32 33 33 32 31 31 30 30 30 31 32 33 33 34 33 33 33 33 33 34 35 36 36 37 38 39 39 40 41 40 39 38 35 34 35 34 33 34 35 34 34 33 34 36
40 39 39 39 38 36 34 35 36 36 35 34 33 33 32 32 32 32 31 32 33 33 32 32 31 31 30 30 31 32 33 34 33 33 33 33 33 34 34 35 35 36 37 38 38 39 40 40 40 39 37 36 34 34 33 33 33 34 35 35 34 35 36
39 38 38 38 36 33 33 34 36 35 34 33 32 32 31 31 31 31 31 32 33 33 32 32 30 30 30 30 31 32 33 33 33 32 33 33 33 33 34 34 34 35 36 37 37 38 39 39 39 38 38 36 34 33 33 33 33 33 34 34 35 35 37
36 37 36 35 33 32 33 35 36 35 33 31 31 30 30 30 30 30 31 32 32 31 31 31 30 30 30 31 31 32 32 32 32 32 33 33 33 33 33 33 33 34 35 36 36 37 38 38 38 38 37 35 34 33 33 33 33 33 33 33 33 35 37
33 33 32 31 31 31 32 34 33 31 29 29 29 29 29 29 30 30 30 30 28 29 30 31 32 31 31 31 31 31 31 31 31 32 32 32 31 32 32 32 32 33 34 35 35 36 36 37 37 37 36 35 35 34 33 32 32 32 32 32 33 35 36
29 28 27 27 28 28 29 29 28 27 27 28 29 29 29 28 28 28 28 27 27 29 31 33 33 32 32 31 31 31 31 31 30 31 31 30 30 30 31 31 32 33 33 34 34 34 35 36 37 37 36 35 35 33 32 31 32 32 31 32 34 35 36
26 26 24 23 24 25 26 27 27 27 27 28 27 27 27 27 27 27 27 26 27 29 32 33 33 33 32 31 31 31 30 29 29 29 30 29 30 30 30 31 31 31 32 33 33 33 34 35 36 36 35 35 34 33 31 31 31 31 31 32 33 34 35
23 23 22 22 23 24 25 25 25 25 26 26 26 26 27 27 27 27 27 26 27 30 32 33 33 33 32 31 31 30 30 29 29 29 28 29 30 30 30 30 31 30 30 31 32 33 34 34 34 34 34 34 33 32 31 31 31 31 31 32 33 34 35
20 20 21 22 23 23 23 23 23 24 24 25 26 26 26 26 27 27 27 27 28 31 33 33 33 33 32 31 30 30 30 29 29 29 29 29 30 30 30 30 31 31 31 31 31 32 33 32 32 32 32 32 32 31 30 30 30 30 30 32 33 34 34
18 18 19 20 21 21 22 23 23 24 24 24 24 25 25 26 27 28 27 27 29 32 33 33 33 34 33 32 31 30 30 30 30 30 30 30 30 31 31 30 30 31 32 31 31 31 31 31 30 30 30 30 30 30 30 29 29 29 30 31 33 33 33
16 17 19 20 20 21 22 23 23 24 23 23 23 24 25 27 28 29 29 29 30 32 32 33 33 33 32 32 31 31 31 31 31 30 30 31 31 32 32 31 31 31 31 31 31 31 31 30 30 29 29 29 29 29 28 28 29 29 30 31 32 32 31
16 17 19 20 20 21 22 23 23 23 23 23 23 23 25 27 29 29 29 29 30 31 31 32 33 32 32 32 31 31 31 32 32 31 31 31 32 32 32 32 31 31 31 30 30 30 30 30 30 29 28 28 28 28 27 27 28 29 31 32 31 31 30
Wind_Direction
247 246 246 245 245 245 244 243 242 241 241 241 242 242 242 243 243 244 246 248 250 252 255 256 257 258 259 260 261 263 265 267 268 270 272 274 277 280 281 281 278 278 282 285 282 278 278 279 281 283 285 287 289 291 294 295 297 298 299 300 300 300 302
247 247 246 246 246 245 244 243 243 242 241 241 242 242 242 243 243 244 246 248 250 252 254 256 258 259 261 261 262 264 265 267 268 269 271 273 276 278 280 281 279 279 281 283 283 279 276 276 278 281 283 285 287 290 291 293 295 296 297 299 300 301 303
248 247 247 246 246 246 244 243 242 241 240 240 241 241 242 243 243 244 246 247 250 252 254 256 258 260 262 262 262 264 265 266 267 268 270 273 274 276 278 281 281 279 279 282 283 280 278 277 277 279 281 283 286 288 289 290 292 294 297 299 300 301 302
248 247 246 246 245 245 244 243 242 241 240 240 240 241 242 242 243 243 245 247 249 251 253 255 258 260 261 261 262 263 264 265 266 268 270 271 273 275 277 280 281 280 279 280 282 282 281 280 279 279 281 283 284 286 288 290 291 293 295 297 298 299 301
248 247 246 245 245 245 244 243 243 242 241 241 241 241 241 242 242 243 244 246 248 250 252 255 258 259 260 260 261 262 263 265 267 267 268 269 271 274 277 279 279 279 278 278 280 283 283 282 281 282 282 283 285 286 287 290 292 294 295 296 296 297 298
248 247 247 246 246 246 245 244 243 242 241 241 241 241 241 241 242 243 244 245 246 248 251 255 257 258 259 260 261 263 264 265 265 265 266 268 270 272 275 277 278 278 278 278 280 282 283 283 282 283 283 283 285 286 288 291 294 295 296 297 296 295 297
249 249 248 248 247 247 246 244 243 241 240 240 240 241 241 240 241 242 243 244 246 248 251 254 256 258 259 261 262 263 264 264 264 263 264 266 268 271 273 276 277 277 277 278 279 281 283 283 283 282 283 283 284 287 290 294 295 295 295 296 297 296 298
251 251 250 249 249 248 246 244 241 240 238 238 239 239 240 240 241 242 243 244 246 248 250 253 255 257 259 261 262 263 263 263 262 263 264 265 267 270 273 275 276 276 276 277 279 280 281 283 282 283 284 285 287 290 292 295 295 295 296 297 296 296 299
252 252 251 250 250 248 246 244 241 239 239 239 240 240 240 241 241 242 243 244 245 247 249 252 255 257 260 261 262 262 261 261 262 262 263 265 267 269 272 273 274 274 275 277 278 279 280 282 283 284 286 287 290 292 293 293 294 295 297 298 297 297 299
251 251 250 250 249 248 246 245 243 241 240 241 242 241 241 242 242 242 243 244 245 247 249 252 255 258 260 261 261 261 261 261 262 263 264 265 266 268 270 272 273 274 275 276 277 278 279 280 282 285 287 288 291 292 291 293 294 295 298 300 299 300 302
249 249 249 249 248 248 247 245 244 242 241 241 242 242 241 242 242 242 243 244 246 248 251 253 256 258 259 260 261 261 262 262 263 263 264 264 266 268 269 271 272 273 275 275 275 276 277 278 282 285 286 288 291 292 292 294 296 297 299 300 300 301 301
248 248 248 248 248 248 247 246 244 242 242 242 242 242 242 242 243 243 244 245 246 248 251 254 256 258 259 260 262 263 263 263 263 264 264 264 266 267 268 269 271 273 274 274 273 273 274 278 282 285 286 289 291 291 292 295 296 296 297 298 298 298 298
248 248 248 248 248 248 248 246 244 242 242 242 243 243 243 242 243 244 244 245 247 249 252 254 257 258 260 261 263 263 263 263 263 264 264 265 265 265 267 268 270 272 272 271 271 272 275 279 282 284 287 290 290 290 292 294 294 294 295 296 295 294 294
248 248 248 248 248 249 248 247 244 241 242 242 241 242 243 243 243 244 245 246 248 250 252 254 257 259 262 264 264 263 263 263 263 264 264 264 264 264 267 269 270 271 270 269 270 274 277 280 282 284 287 289 289 291 293 293 293 294 295 293 291 290 291
249 248 248 248 248 249 248 246 243 240 241 241 241 241 244 246 244 243 245 247 248 250 253 255 257 260 263 265 265 265 264 263 263 263 263 263 264 266 268 269 270 272 271 270 272 275 279 281 282 285 286 287 288 290 291 292 292 292 291 288 287 289 290
249 249 249 248 248 248 248 245 241 238 239 240 240 239 242 246 247 246 246 247 249 250 252 254 257 260 262 264 265 265 266 265 264 263 263 264 266 269 271 271 272 273 273 274 276 279 281 283 284 285 285 287 289 291 293 293 291 288 287 286 287 288 289
249 249 248 247 247 247 247 244 239 238 238 239 239 239 240 243 246 248 248 249 251 252 253 254 256 258 260 261 262 263 265 266 267 266 267 268 269 271 273 274 274 275 276 278 280 281 282 284 284 284 284 284 284 283 283 283 282 282 283 283 283 284 285
251 250 249 248 247 246 246 243 239 238 239 238 237 238 240 242 245 248 250 251 252 254 256 258 259 260 261 261 262 263 264 266 267 267 268 269 271 272 273 274 276 277 278 279 278 278 278 278 278 279 279 278 276 272 268 268 272 275 276 276 276 278 280
251 250 249 248 247 246 245 242 239 237 238 238 237 238 240 242 244 248 251 253 254 254 256 259 261 262 263 264 265 265 265 265 266 267 268 269 271 271 273 276 278 279 279 278 277 276 276 275 276 276 277 276 276 274 269 266 266 267 268 269 271 272 275
250 249 249 248 247 246 243 239 237 236 236 236 236 237 240 242 245 248 252 255 256 256 257 259 260 261 262 264 266 266 265 264 265 267 269 269 269 271 275 278 279 279 279 278 277 277 277 277 278 279 280 280 280 278 274 268 265 263 263 265 267 268 270
250 249 248 247 246 245 242 238 236 236 235 235 235 237 239 242 246 250 254 255 256 257 259 260 261 262 263 265 266 266 264 263 263 264 266 267 269 272 276 278 279 279 279 279 280 280 280 280 282 283 284 286 287 286 281 274 268 267 266 266 265 266 267
250 249 248 246 245 243 241 237 235 235 235 235 236 237 239 243 248 252 254 255 257 259 261 263 264 265 266 266 264 263 262 261 260 260 262 266 269 273 276 277 278 279 280 280 282 283 284 285 285 286 287 290 290 289 286 280 275 273 272 270 268 268 268
249 248 247 246 244 242 239 235 233 234 234 234 236 238 240 244 249 252 254 256 259 261 263 265 266 266 266 265 263 261 260 259 259 258 261 264 268 272 274 276 276 277 278 280 281 283 285 286 286 286 288 289 290 289 286 283 280 278 276 274 272 271 271
247 246 246 246 244 242 238 233 231 232 233 235 236 239 242 245 248 252 254 257 260 262 264 266 267 267 266 264 262 261 260 259 259 260 262 265 267 270 272 272 274 275 277 278 279 281 283 283 283 284 285 287 287 286 284 282 282 281 280 278 276 274 273
248 247 246 246 245 243 238 233 231 232 233 235 237 240 243 246 249 251 254 257 261 263 265 267 267 266 265 263 261 261 261 261 261 262 264 265 267 268 269 270 272 274 275 276 278 280 281 282 282 284 285 285 283 281 280 280 280 281 282 280 278 276 275
249 248 247 246 245 244 240 234 232 232 233 235 239 242 245 248 251 253 255 258 261 263 264 265 265 264 263 262 261 260 260 261 263 264 265 266 267 268 270 271 273 275 276 277 278 279 280 282 283 285 285 284 282 280 278 278 278 280 282 282 281 279 276
251 249 247 246 245 243 239 234 232 232 233 236 240 245 248 250 252 255 256 259 262 264 265 266 264 262 260 259 258 258 260 262 264 265 266 267 268 270 271 272 274 275 276 276 278 279 280 282 284 285 284 284 282 279 278 278 278 279 280 281 282 280 278
255 253 251 249 246 242 235 232 231 232 234 239 245 249 250 252 253 255 257 260 263 265 266 264 262 259 257 257 257 259 261 263 265 266 267 268 269 270 271 272 273 274 274 276 277 278 280 282 283 283 283 283 281 278 277 278 278 278 279 279 279 278 277
260 260 258 255 249 241 235 233 233 236 240 245 248 250 251 253 254 256 258 260 262 263 262 261 260 260 259 259 260 261 263 265 266 267 268 269 270 271 272 273 274 274 275 277 277 278 280 281 281 281 282 281 280 278 278 278 277 278 278 279 278 277 277
258 258 258 257 251 243 238 238 240 242 244 246 248 250 253 254 256 257 258 259 259 259 259 260 261 262 262 263 264 265 266 267 268 269 271 271 271 271 272 273 273 275 277 277 277 278 278 279 280 281 282 281 280 279 279 277 276 276 276 276 277 277 277
251 249 247 247 245 240 236 238 241 244 246 249 251 253 255 256 257 258 258 258 258 258 259 260 262 263 264 265 267 268 269 270 271 272 272 273 272 272 272 272 274 276 277 277 276 276 276 277 279 281 281 281 280 280 278 277 276 275 276 276 276 276 276
245 241 236 233 234 235 236 239 243 247 252 255 256 257 258 259 260 260 259 258 258 259 260 262 263 265 267 269 271 273 274 275 274 274 274 274 274 274 275 276 278 278 277 275 274 275 276 277 279 280 280 279 279 279 277 276 275 275 276 276 276 276 276
238 234 232 233 237 241 244 247 249 251 254 256 258 260 262 262 262 262 261 260 260 262 264 266 268 270 272 274 276 278 279 279 279 278 277 277 277 278 279 280 281 281 279 277 276 276 278 279 280 280 279 278 278 277 276 275 275 276 277 277 276 276 277
235 233 237 242 247 250 252 253 254 253 253 255 257 259 261 262 262 262 261 261 261 263 266 268 271 273 276 278 279 280 280 280 280 279 279 280 280 280 281 282 282 281 280 279 278 278 279 280 280 279 278 278 278 277 276 276 276 276 276 276 276 277 278
240 242 246 250 253 254 255 256 256 256 256 256 257 258 259 260 260 261 261 262 263 265 268 270 272 275 277 279 280 280 280 280 280 280 281 281 281 282 283 283 282 280 279 279 278 278 279 280 279 279 278 277 277 276 277 278 279 279 278 277 276 276 278
250 250 252 253 254 255 256 257 258 259 259 259 259 259 258 258 260 262 263 264 265 267 270 271 273 275 277 278 279 280 280 280 280 281 281 282 282 283 283 283 282 280 279 278 277 277 278 278 278 278 278 277 276 276 278 279 280 279 277 276 276 277 278